Tracking 25193 objects as of 19-Jan-2022
HD Live streaming from Space Station
objects crossing your sky now

USA 276

Track USA 276 now!
10-day predictions
USA 276 is classified as:


NORAD ID: 42689
Int'l Code: 2017-022A
Perigee: 378.7 km
Apogee: 385.7 km
Inclination: 50.0 °
Period: 92.0 minutes
Semi major axis: 6753 km
RCS: Unknown
Launch date: May 1, 2017
Source: United States (US)
Launch site: AIR FORCE EASTERN TEST RANGE (AFETR)
aabbcc
Your satellite tracking list
Your tracking list is empty




NASA's NSSDC Master Catalog

Two Line Element Set (TLE):
1 42689U 17022A   22016.72614723 0.00011000  00000-0  11205-3 0    01
2 42689  49.9970 333.4884 0005226 199.7327 160.2671 15.64372646    02
Source of the keplerian elements: McCants